Content
SEND FEEDBACK

Daily
Averages
Monthly
Summary
United States of America

LIDGERWOOD, NORTH DAKOTA


Home > North America > United States > North Dakota
Elevation: 1150 feet     Latitude: 46 04N     Longitude: 097 10W

WEATHER
 
SELECT A DAY
Number of Records: 136,132;   Date Range: 8/27/98 - 8/17/14
 
SHARE

PRINT THIS DATA

[ ← Previous Day ]
WEATHER ALMANAC - JANUARY 23, 2013
[ Next Day → ]
[ °C ]   °F
Weather ElementAverageHighLow
Temperature1.7 °F12.9 °F (2:56 am)-11 °F (10:56 pm)
Dewpoint-5.7 °F8.1 °F (2:56 am)-20 °F (11:56 pm)
Humidity71.5 %84 % (5:56 am)63 % (11:56 am)
Barometer30.51 in30.79 in (10:56 pm)30.24 in (1:56 am)
Wind Speed16 mph25.3 mph (11:56 am)
Wind Gust29.9 mph (9:56 am)
Weather ElementAverage
Wind DirectionSSE (160.4 °)

Weather ElementTotal
Precipitation0.01 in
Heating Degree Days64.1 (Base 65)
Averaged from 23 records on January 23, 2013
WEATHER CONDITIONS BREAKOUT
WIND DIRECTION BREAKOUT
WEATHER BY HOUR - JANUARY 23, 2013
[ °C ]   °F
Local TimeTemperatureDewpointHumidityBarometerVisibilityWind DirectionWind SpeedGust SpeedPrecipitationEventsConditions
1:56 AM12.0 °F6.1 °F77 %30.24 inCalm
2:56 AM12.9 °F8.1 °F81 %30.24 inNW (310°)6.9 mph
3:56 AM12.0 °F7.0 °F80 %30.24 inWNW (300°)12.7 mph
4:56 AM12.0 °F7.0 °F80 %30.25 inNW (310°)11.5 mph
5:56 AM9.0 °F5.0 °F84 %30.27 inNNW (340°)20.7 mph
6:56 AM7.0 °F3.0 °F84 %30.32 inNNW (340°)15.0 mph21.9 mph
7:56 AM5.0 °F0.0 °F80 %30.35 inNorth (350°)18.4 mph
8:56 AM5.0 °F-0.9 °F76 %30.38 inNNW (340°)21.9 mph26.5 mph
9:56 AM3.9 °F-2.0 °F76 %30.43 inNorth (360°)24.2 mph29.9 mph
10:56 AM3.9 °F-4.0 °F70 %30.48 inNorth (10°)20.7 mph28.8 mph
11:56 AM6.1 °F-4.0 °F63 %30.49 inNorth (360°)25.3 mph29.9 mph
12:56 PM3.9 °F-6.0 °F64 %30.52 inNorth (10°)21.9 mph
1:56 PM3.9 °F-6.0 °F64 %30.54 inNorth (360°)21.9 mph29.9 mph
2:56 PM1.9 °F-7.1 °F66 %30.56 inNorth (10°)24.2 mph
3:56 PM1.0 °F-8.0 °F66 %30.61 inNNE (20°)20.7 mph
4:56 PM-2.0 °F-11.0 °F66 %30.67 inNNE (20°)17.3 mph0.01 in
5:56 PM-5.1 °F-13.0 °F69 %30.69 inNNE (30°)13.8 mph
6:56 PM-6.0 °F-15.0 °F65 %30.70 inNNE (20°)12.7 mph
7:56 PM-8.0 °F-16.1 °F68 %30.73 inNNE (30°)13.8 mph
8:56 PM-9.0 °F-17.0 °F68 %30.75 inNE (40°)12.7 mph
9:56 PM-9.0 °F-18.0 °F65 %30.77 inNE (40°)11.5 mph
10:56 PM-11.0 °F-18.9 °F68 %30.79 inNE (40°)9.2 mph
11:56 PM-11.0 °F-20.0 °F64 %30.78 inNE (50°)10.4 mph
Hourly data recorded from K8D3, located miles away from Lidgerwood, North Dakota







STORIES FROM OUR PARTNERS